Regional Weather Roundup
Issued by NWS

Home | Current Version | Previous Version | Graphics & Text | Print | Product List | Glossary On
Versions: 1 2 3 4 5 6 7 8 9 10 11 12 13 14 15 16 17 18 19 20 21 22 23 24 25 26 27 28 29 30 31 32 33 34 35 36 37 38 39 40 41 42 43 44 45 46 47 48 49 50
000
ASUS43 KOAX 271810
RWRNE

WEATHER ROUNDUP FOR NEBRASKA
NATIONAL WEATHER SERVICE OMAHA NE
100 PM CDT SUN JUL 27 2014

NOTES: SATELLITE DATA IS BEING USED TO AUGMENT CLOUD COVER ABOVE
       12000 FEET.
       "FAIR" INDICATES FEW OR NO CLOUDS BELOW 12,000 FEET WITH NO
       SIGNIFICANT WEATHER AND/OR OBSTRUCTIONS TO VISIBILITY.

  * THESE STATIONS DO NOT REPORT WEATHER SUCH AS RAIN...SNOW OR FOG.

NEZ001>004-019>022-054>056-271900-
NEBRASKA PANHANDLE

CITY           SKY/WX    TMP DP  RH WIND       PRES   REMARKS
SCOTTSBLUFF    MOSUNNY   78  50  37 VRB3      30.35F
6HR MIN TEMP:  58; 6HR MAX TEMP:  78;

ALLIANCE       MOSUNNY   79  43  27 VRB3      30.34F
6HR MIN TEMP:  49; 6HR MAX TEMP:  80;

CHADRON        SUNNY     79  46  31 CALM      30.31F
6HR MIN TEMP:  49; 6HR MAX TEMP:  79;

KIMBALL        SUNNY     77  48  35 E10       30.37S
SIDNEY         PTSUNNY   81  45  28 E10       30.37S
6HR MIN TEMP:  63; 6HR MAX TEMP:  82;

$$

NEZ057>060-069>072-079>082-271900-
SOUTHWEST NEBRASKA

CITY           SKY/WX    TMP DP  RH WIND       PRES   REMARKS
NORTH PLATTE   SUNNY     82  50  32 N10       30.26F
6HR MIN TEMP:  60; 6HR MAX TEMP:  82;

IMPERIAL       LGT RAIN  82  48  30 NE10      30.31R
6HR MIN TEMP:  63; 6HR MAX TEMP:  82; 6HR PCP: TRACE;

LEXINGTON      SUNNY     81  51  35 NW7       30.25S
MCCOOK         MOSUNNY   86  49  27 N8G21     30.26S
6HR MIN TEMP:  62; 6HR MAX TEMP:  86;

OGALLALA       PTSUNNY   79  47  32 N5        30.31F
$$

NEZ005>010-023>029-035>040-094-271900-
NORTH CENTRAL NEBRASKA

CITY           SKY/WX    TMP DP  RH WIND       PRES   REMARKS
VALENTINE      SUNNY     80  49  33 N16G25    30.26F
6HR MIN TEMP:  53; 6HR MAX TEMP:  80;

AINSWORTH      SUNNY     77  48  35 NW16G29   30.25S
BROKEN BOW     SUNNY     80  54  40 N17G33    30.24S
6HR MIN TEMP:  57; 6HR MAX TEMP:  80;

O`NEILL        MOSUNNY   79  51  37 NW18G28   30.20F
ORD            SUNNY     81  55  40 N15       30.19F
6HR MIN TEMP:  58; 6HR MAX TEMP:  81;

THEDFORD       SUNNY     80  50  35 N12G24    30.28F
$$

NEZ041-046>049-061>064-073>077-083>087-271900-
SOUTH CENTRAL NEBRASKA

CITY           SKY/WX    TMP DP  RH WIND       PRES   REMARKS
GRAND ISLAND   SUNNY     83  52  34 N21G28    30.19F
6HR MIN TEMP:  62; 6HR MAX TEMP:  83;

AURORA         SUNNY     80  56  43 N14G21    30.18F
HASTINGS       SUNNY     82  51  34 NW14G21   30.20F
6HR MIN TEMP:  64; 6HR MAX TEMP:  82;

HEBRON         SUNNY     83  48  29 NW9G16    30.16F
HOLDREGE       SUNNY     81  51  34 NW7       30.23F
KEARNEY *      SUNNY     82  48  30 NW15G22   30.23S
YORK           SUNNY     79  57  47 N13       30.17F
$$

NEZ011>018-030>034-042>045-271900-
NORTHEAST NEBRASKA

CITY           SKY/WX    TMP DP  RH WIND       PRES   REMARKS
NORFOLK        SUNNY     78  55  44 NW24G32   30.15S
6HR MIN TEMP:  61; 6HR MAX TEMP:  79;

ALBION         SUNNY     77  54  44 NW16G23   30.18S
BLAIR          SUNNY     77  55  47 NW20G26   30.10S
COLUMBUS *     SUNNY     72  57  60 N16G22    30.15S
FREMONT        MOSUNNY   80  59  47 NW18G24   30.13S
WAYNE          MOSUNNY   76  59  55 NW16G24   30.14S
$$

NEZ050>053-065>068-078-088>093-271900-
SOUTHEAST NEBRASKA

CITY           SKY/WX    TMP DP  RH WIND       PRES   REMARKS
LINCOLN        SUNNY     84  54  35 N21G30    30.13F
6HR MIN TEMP:  70; 6HR MAX TEMP:  85;

OMAHA EPPLEY   MOSUNNY   81  56  42 N20       30.09S
6HR MIN TEMP:  67; 6HR MAX TEMP:  82;

BEATRICE       SUNNY     83  58  43 N18G24    30.13F
NEBRASKA CITY  SUNNY     80  55  41 NW16G25   30.10S
PLATTSMOUTH    SUNNY     81  55  40 NW13G21   30.10S
$$

NEZ044-045-051>053-067-271900-
OMAHA AREA

CITY           SKY/WX    TMP DP  RH WIND       PRES   REMARKS
OMAHA EPPLEY   MOSUNNY   81  56  42 N20       30.09S
6HR MIN TEMP:  67; 6HR MAX TEMP:  82;

BLAIR          SUNNY     77  55  47 NW20G26   30.10S
FREMONT        MOSUNNY   80  59  47 NW18G24   30.13S
MILLARD        SUNNY     80  57  45 NW16G28   30.09F
OFFUTT AFB     SUNNY     81  58  45 NW20      30.08F
PLATTSMOUTH    SUNNY     81  55  40 NW13G21   30.10S
WAHOO          FAIR      80  59  49 NW15G23   30.12S
$$


USA.gov is the U.S. government's official web portal to all federal, state and local government web resources and services.